Manchester, NH

8:17 PM EST on November 24, 2017 (GMT -0500)
Manchester

Weather History for KMHT - March, 2013

Change the Weather History Date:

Tuesday, March 26, 2013

  Actual Average Record
Temperature  
Mean Temperature 42 °F 39 °F  
Max Temperature 51 °F 48 °F 70 °F (1963)
Min Temperature 35 °F 30 °F -4 °F (1960)
Degree Days  
Heating Degree Days 22 26  
Month to date heating degree days 774  
Since 1 July heating degree days 5437  
Cooling Degree Days 0 0  
Month to date cooling degree days 0  
Year to date cooling degree days 0  
Moisture  
Dew Point 20 °F    
Average Humidity 45    
Maximum Humidity 67    
Minimum Humidity 25    
Precipitation  
Precipitation 0.00 in 0.18 in 1.15 in (1969)
Month to date precipitation 3.46  
Year to date precipitation 9.26  
Snow  
Snow 0.00 in - - ()
Month to date snowfall  
Since 1 July snowfall  
Snow Depth -    
Sea Level Pressure  
Sea Level Pressure 29.70 in    
Wind  
Wind Speed 9 mph (NW)    
Max Wind Speed 16 mph    
Max Gust Speed 22 mph    
Visibility 10 miles    
Events      
T = Trace of Precipitation, MM = Missing Value Source: NWS Daily Summary

Daily Weather History Graph

Daily Weather History Graph

Search for Another Location

Airport or City:

Trip Planner

Search our weather history database for the weather conditions in past years. The results will help you decide how hot, cold, wet, or windy it might be!

Date:

Astronomy

Mar. 26, 2013 Rise Set
Actual Time 6:38 AM EDT 7:05 PM EDT
Civil Twilight 6:09 AM EDT 7:33 PM EDT
Nautical Twilight 5:36 AM EDT 8:07 PM EDT
Astronomical Twilight 5:01 AM EDT 8:41 PM EDT
Moon 6:39 PM EDT (3/26) 5:53 AM EDT (3/26)
Length of Visible Light 13h 24m
Length of Day
12h 27m
Waxing Gibbous, 99% of the Moon is Illuminated
Mar 26
Waxing Gibbous
Mar 27
Full
Apr 3
Last Quarter
Apr 10
New
Apr 18
First Quarter

Hourly Weather History & Observations

Time (EDT) Temp. Windchill Dew Point Humidity Pressure Visibility Wind Dir Wind Speed Gust Speed Precip Events Conditions
12:53 AM 37.0 °F 29.8 °F 24.1 °F 59% 29.61 in 10.0 mi North 10.4 mph - N/A   Overcast
1:53 AM 37.9 °F 31.5 °F 24.1 °F 57% 29.60 in 10.0 mi North 9.2 mph - N/A   Overcast
2:53 AM 37.0 °F 29.8 °F 24.1 °F 59% 29.61 in 10.0 mi North 10.4 mph - N/A   Overcast
3:53 AM 35.1 °F 27.4 °F 25.0 °F 67% 29.61 in 10.0 mi NNW 10.4 mph - N/A   Mostly Cloudy
4:53 AM 36.0 °F 31.1 °F 25.0 °F 64% 29.62 in 10.0 mi NW 5.8 mph - N/A   Overcast
5:53 AM 35.1 °F 28.6 °F 25.0 °F 67% 29.64 in 10.0 mi NNW 8.1 mph - N/A   Overcast
6:53 AM 36.0 °F 31.1 °F 25.0 °F 64% 29.66 in 10.0 mi NW 5.8 mph - N/A   Overcast
7:53 AM 36.0 °F 31.1 °F 26.1 °F 67% 29.69 in 10.0 mi NW 5.8 mph - N/A   Overcast
8:53 AM 39.0 °F 35.7 °F 25.0 °F 57% 29.70 in 10.0 mi NW 4.6 mph - N/A   Mostly Cloudy
9:53 AM 42.1 °F 36.6 °F 19.9 °F 41% 29.70 in 10.0 mi WNW 9.2 mph 16.1 mph N/A   Mostly Cloudy
10:53 AM 43.0 °F 37.2 °F 19.9 °F 40% 29.71 in 10.0 mi North 10.4 mph 16.1 mph N/A   Mostly Cloudy
11:53 AM 43.0 °F 40.3 °F 18.0 °F 37% 29.71 in 10.0 mi NNW 4.6 mph - N/A   Mostly Cloudy
12:53 PM 45.0 °F 40.6 °F 18.0 °F 34% 29.71 in 10.0 mi NNW 8.1 mph - N/A   Mostly Cloudy
1:53 PM 46.4 °F 41.5 °F 15.8 °F 29% 29.66 in 10.0 mi WNW 10.4 mph - N/A   Scattered Clouds
2:53 PM 48.0 °F - 15.1 °F 27% 29.70 in 10.0 mi NW 10.4 mph - N/A   Scattered Clouds
3:53 PM 50.0 °F - 15.1 °F 25% 29.69 in 10.0 mi West 8.1 mph 18.4 mph N/A   Scattered Clouds
4:53 PM 48.9 °F - 16.0 °F 27% 29.71 in 10.0 mi NW 16.1 mph 21.9 mph N/A   Partly Cloudy
5:53 PM 48.9 °F - 15.1 °F 26% 29.73 in 10.0 mi NW 9.2 mph - N/A   Partly Cloudy
6:53 PM 46.9 °F - 16.0 °F 29% 29.75 in 10.0 mi WNW 6.9 mph - N/A   Partly Cloudy
7:53 PM 45.0 °F 42.6 °F 17.1 °F 33% 29.77 in 10.0 mi WNW 4.6 mph - N/A   Clear
8:53 PM 43.0 °F 39.5 °F 18.0 °F 37% 29.79 in 10.0 mi NW 5.8 mph - N/A   Clear
9:53 PM 41.0 °F 36.4 °F 19.0 °F 41% 29.81 in 10.0 mi NW 6.9 mph - N/A   Clear
10:53 PM 39.0 °F 32.8 °F 19.9 °F 46% 29.81 in 10.0 mi NW 9.2 mph - N/A   Clear
11:53 PM 37.9 °F 35.5 °F 19.9 °F 48% 29.81 in 10.0 mi WNW 3.5 mph - N/A   Clear